{"data":{"norad_id":53064,"epoch":"2026-09-19T22:42:33.974784Z","epoch_age_seconds":117272,"freshness":"FRESH","line1":"1 53064U 22077X   26262.94622656 -.00007536  00000+0 -23119-3 0  9995","line2":"2 53064  97.2853  78.6478 0001360  93.7006 266.4392 15.33465216230260","mean_motion":15.33465216,"eccentricity":0.000136,"inclination_deg":97.2853,"raan_deg":78.6478,"arg_perigee_deg":93.7006,"mean_anomaly_deg":266.4392,"bstar":-0.00023119,"rev_number":23026,"period_min":93.904966671249,"perigee_km":464.55229422248,"apogee_km":466.4137588697,"semimajor_km":6843.6200265461,"source":"CELESTRAK","updated_at":"2026-09-20T09:00:40.154131Z"}}